[[{"header":{"parameterUnit":"m.s-1","parameterCategory":1,"la1":30.2991,"la2":30.254,"lo1":-89.0895,"lo2":-89.0444,"dy":0.0017,"dx":0.0017,"nx":28,"ny":28,"refTime":"2024-05-10T03:00:00:Z","depth":0,"parameterNumber":2,"parameterNumberName":"U-component_of_WINDS"},"data":[0,0,0,0,0,0,0,0,0,0,0,0,0,0,0,0,0,0,0,0,0,0,0,0,0,0,0,0,0,0,0,0,0,0,0,0,0,0,0,0,0,0,0,0,0,0,0,0,0,0,0,0,0,0,0,0,0,0,1.8095,1.8096,0,1.8229,1.8231,1.8233,1.8236,1.8234,1.8233,1.8231,1.8377,1.8383,1.8388,0,0,0,0,0,0,0,0,0,0,0,0,0,1.7851,1.7855,1.8095,1.8096,1.8098,1.8229,1.8231,1.8233,1.8236,1.8234,1.8232,1.823,1.8376,1.8382,1.8389,0,0,0,0,0,0,0,0,0,0,0,0,0,1.7968,1.7856,1.8094,1.8115,1.8119,1.8229,1.8231,1.8233,1.8237,1.8234,1.8232,1.8229,1.8374,1.8381,1.839,1.8491,0,0,1.8415,1.8418,0,0,0,0,0,0,0,0,1.7962,1.7977,1.8111,1.8114,1.8118,1.8213,1.8199,1.832,1.8237,1.8192,1.8231,1.8228,1.8325,1.8337,1.8368,1.8497,1.8504,1.8415,1.842,1.8424,1.8426,0,0,0,0,0,0,0,1.7953,1.7972,1.8148,1.8113,1.8117,1.8121,1.8135,1.8222,1.8272,1.8196,1.8196,1.8212,1.8327,1.8361,1.8372,1.8506,1.8415,1.8422,1.8427,1.8431,1.8728,1.8731,0,0,0,0,0,0,1.794,1.7965,1.8144,1.8152,1.8032,1.8128,1.8143,1.8185,1.8271,1.8281,1.8214,1.8211,1.8348,1.8362,1.8377,1.8503,1.8424,1.8431,1.8436,1.8725,1.8729,1.8732,0,0,0,0,0,0,1.7934,1.7956,1.8139,1.8059,1.8082,1.8135,1.8182,1.8189,1.8223,1.8284,1.8294,1.8238,1.8346,1.8366,1.8463,1.8508,1.8435,1.8443,1.8722,1.8727,1.8731,1.8753,0,0,0,0,0,0,1.7927,1.7954,1.799,1.8059,1.8086,1.8219,1.8184,1.8194,1.8236,1.8234,1.831,1.832,1.8346,1.845,1.8471,1.8518,1.8449,1.8718,1.8724,1.8729,1.8749,1.8758,1.8766,0,0,0,0,0,1.7919,1.7992,1.7992,1.8013,1.8132,1.8221,1.8237,1.8263,1.8239,1.8278,1.8318,1.8317,1.8499,1.846,1.8483,1.8533,1.8715,1.8722,1.8729,1.8745,1.8756,1.8765,0,0,0,0,0,0,1.7929,1.8002,1.8002,1.8099,1.8154,1.8221,1.827,1.8274,1.8338,1.8334,1.8366,1.8384,1.848,1.8517,1.8472,1.8637,1.8605,1.8617,1.8609,1.8621,1.8629,1.8618,1.8456,0,0,0,0,0,1.7942,1.8005,1.8066,1.8147,1.8174,1.8218,1.8257,1.8273,1.8331,1.8355,1.8402,1.8462,1.8533,1.8579,1.8647,1.8754,1.8773,1.8801,1.8809,1.8816,1.8826,1.8888,1.8901,1.8754,1.8754,1.8754,0,0,1.7971,1.8018,1.8056,1.815,1.8194,1.8262,1.8237,1.8309,1.8361,1.8367,1.8461,1.8498,1.8567,1.867,1.8718,1.8703,1.8871,1.8824,1.8829,1.8836,1.8896,1.891,1.8922,1.8759,1.8758,1.8757,0,0,1.8057,1.8099,1.8171,1.8215,1.8282,1.8311,1.8328,1.8396,1.842,1.8514,1.8521,1.8585,1.8706,1.8756,1.8797,1.8905,1.8908,1.8927,1.8972,1.9032,1.9043,1.9054,1.9094,1.9108,1.8937,1.8937,1.8937,0,1.8085,1.8184,1.8208,1.828,1.8323,1.833,1.8406,1.8449,1.8536,1.8566,1.8548,1.8702,1.8749,1.8864,1.8891,1.8923,1.8947,1.8918,1.9039,1.905,1.906,1.9099,1.9114,1.8939,1.8939,1.8938,1.8938,0,1.8216,1.8285,1.8336,1.8417,1.8465,1.8539,1.8578,1.8625,1.8637,1.8669,1.8767,1.8824,1.8905,1.8934,1.8948,1.9053,1.9042,1.9032,1.9,1.9076,1.9113,1.9128,1.8942,1.8941,1.894,1.894,0,0,1.831,1.8405,1.8423,1.8461,1.8536,1.8592,1.8668,1.8745,1.8785,1.8846,1.8912,1.9016,1.9007,1.9054,1.9074,1.9126,1.9211,1.911,1.9112,1.9127,1.9333,1.9341,1.9357,1.9214,1.9217,1.9219,1.9328,0,1.8405,1.8536,1.8562,1.8678,1.8743,1.8753,1.882,1.8875,1.8909,1.8972,1.901,1.9083,1.9065,1.9094,1.9146,1.9189,1.9253,1.9182,1.9279,1.9282,1.926,1.9376,1.9384,1.9484,1.9342,1.9345,1.9347,0,1.8533,1.8594,1.8715,1.8784,1.8813,1.8871,1.8946,1.9005,1.907,1.9091,1.9144,1.9159,1.9242,1.9207,1.9324,1.9275,1.9317,1.9345,1.9349,1.9359,1.9318,1.939,1.9516,1.9531,1.937,1.9368,1.9366,0,1.859,1.8704,1.8792,1.8824,1.8906,1.8948,1.8984,1.9046,1.9092,1.9158,1.9189,1.9265,1.9307,1.9368,1.9404,1.9375,1.952,1.9487,1.9541,1.9541,1.9571,1.9568,1.9706,1.9598,1.9597,1.9597,1.9597,0,1.8693,1.8768,1.8819,1.8873,1.8958,1.8989,1.9073,1.911,1.9166,1.923,1.9245,1.9306,1.935,1.9418,1.9447,1.9541,1.956,1.9582,1.9589,1.958,1.9577,1.9608,1.9602,1.9601,1.96,1.9599,1.9599,0,1.8771,1.8808,1.8905,1.8975,1.8995,1.9054,1.9116,1.9171,1.9205,1.9286,1.9307,1.9362,1.9443,1.9485,1.9587,1.9608,1.9713,1.9716,1.969,1.9693,1.9746,1.9741,1.9907,1.9932,1.9807,1.9808,1.9809,0,1.8834,1.8891,1.8968,1.901,1.9047,1.9116,1.9163,1.9197,1.9246,1.9325,1.9372,1.9453,1.952,1.965,1.9701,1.978,1.9785,1.9839,1.9797,1.9788,1.9787,1.9783,1.979,1.9846,1.9847,1.9848,1.9848,0,1.8943,1.8959,1.9023,1.9096,1.915,1.921,1.9269,1.9304,1.9349,1.9403,1.9485,1.9537,1.9641,1.9723,1.9806,1.9848,1.9857,1.9861,1.9878,1.987,1.9853,1.9864,1.971,1.9857,1.9856,1.9856,1.9855,1.9855,1.9016,1.9068,1.913,1.9202,1.925,1.9305,1.9361,1.9402,1.947,1.9555,1.9573,1.966,1.9728,1.984,1.9885,1.9956,1.9945,1.997,1.9976,1.9982,1.9984,1.9842,1.9972,1.9971,1.9971,1.9971,1.9971,0,1.9125,1.9166,1.9233,1.9314,1.9372,1.9373,1.944,1.9489,1.9565,1.9626,1.9691,1.9787,1.9867,1.9925,2.0008,2.0054,2.0061,2.0075,2.0072,2.0082,1.9989,1.9966,2.0068,2.0068,2.0068,2.0068,2.0068,2.0068,1.9189,1.9278,1.9302,1.9416,1.9457,1.9541,1.9579,1.9631,1.968,1.9785,1.9851,1.9888,1.9949,2.0037,2.0112,2.0127,2.0158,2.0172,2.0188,2.0099,2.0088,2.0079,2.0057,2.0178,2.0178,2.0275,2.0276,2.0277]},{"header":{"parameterUnit":"m.s-1","parameterCategory":1,"la1":30.2991,"la2":30.254,"lo1":-89.0895,"lo2":-89.0444,"dy":0.0017,"dx":0.0017,"nx":28,"ny":28,"refTime":"2024-05-10T03:00:00:Z","depth":0,"parameterNumber":3,"parameterNumberName":"V-component_of_WINDS"},"data":[0,0,0,0,0,0,0,0,0,0,0,0,0,0,0,0,0,0,0,0,0,0,0,0,0,0,0,0,0,0,0,0,0,0,0,0,0,0,0,0,0,0,0,0,0,0,0,0,0,0,0,0,0,0,0,0,0,0,0.884,0.8841,0,0.901,0.9012,0.9014,0.9041,0.9039,0.9038,0.9036,0.9213,0.9219,0.9225,0,0,0,0,0,0,0,0,0,0,0,0,0,0.8536,0.8541,0.8839,0.8842,0.8844,0.901,0.9012,0.9015,0.9041,0.9039,0.9037,0.9036,0.9211,0.9219,0.9226,0,0,0,0,0,0,0,0,0,0,0,0,0,0.8683,0.8543,0.8839,0.8877,0.8882,0.901,0.9012,0.9015,0.9041,0.9039,0.9037,0.9035,0.9209,0.9218,0.9227,0.933,0,0,0.9255,0.9259,0,0,0,0,0,0,0,0,0.8675,0.8694,0.8869,0.8874,0.888,0.9002,0.897,0.9121,0.9042,0.8981,0.9036,0.9034,0.9145,0.9159,0.9196,0.9338,0.9345,0.9256,0.9262,0.9265,0.9268,0,0,0,0,0,0,0,0.8665,0.8687,0.8907,0.8872,0.8879,0.8885,0.8904,0.8999,0.9074,0.8986,0.8988,0.9008,0.9148,0.9187,0.9201,0.9348,0.9256,0.9264,0.927,0.9273,0.958,0.9583,0,0,0,0,0,0,0.8648,0.8679,0.8902,0.8912,0.877,0.8892,0.8913,0.8965,0.9073,0.9087,0.901,0.9009,0.9173,0.919,0.9207,0.9334,0.9265,0.9274,0.9279,0.9577,0.9581,0.9583,0,0,0,0,0,0,0.8641,0.8667,0.8895,0.8796,0.8826,0.89,0.8958,0.897,0.901,0.9091,0.9104,0.9037,0.9172,0.9194,0.9298,0.934,0.9278,0.9287,0.9574,0.9578,0.9582,0.9587,0,0,0,0,0,0,0.8632,0.8665,0.8705,0.8797,0.8831,0.8983,0.8961,0.8975,0.9025,0.9025,0.912,0.9133,0.9172,0.9284,0.9307,0.9352,0.9294,0.9571,0.9576,0.9581,0.9584,0.9591,0.9597,0,0,0,0,0,0.8621,0.87,0.8707,0.8733,0.8882,0.8986,0.9005,0.9047,0.9028,0.9069,0.9121,0.913,0.9331,0.9295,0.9321,0.9369,0.9569,0.9575,0.958,0.9581,0.959,0.9597,0,0,0,0,0,0,0.8613,0.8713,0.8721,0.8833,0.89,0.899,0.9043,0.9055,0.913,0.9128,0.9177,0.9198,0.9299,0.9344,0.9302,0.9472,0.9448,0.946,0.944,0.9449,0.9455,0.9443,0.9301,0,0,0,0,0,0.8624,0.8699,0.8783,0.8873,0.8906,0.8968,0.9015,0.9041,0.9113,0.9143,0.9202,0.9272,0.9351,0.9402,0.9479,0.959,0.961,0.9635,0.9641,0.9647,0.9656,0.9717,0.9729,0.9603,0.9603,0.9603,0,0,0.8648,0.8712,0.8757,0.8873,0.8928,0.9005,0.8993,0.9075,0.9132,0.9155,0.9257,0.9302,0.9384,0.9491,0.9541,0.9532,0.9695,0.9654,0.9658,0.9665,0.9724,0.9736,0.9747,0.9607,0.9606,0.9606,0,0,0.8731,0.8787,0.8867,0.8922,0.9005,0.9046,0.9065,0.9152,0.9183,0.9285,0.9304,0.9372,0.9507,0.9564,0.9611,0.9711,0.9722,0.9734,0.977,0.9828,0.9838,0.9847,0.9883,0.9895,0.9744,0.9744,0.9744,0,0.875,0.8867,0.8907,0.8988,0.9038,0.906,0.9142,0.9194,0.9298,0.9332,0.9319,0.9487,0.9544,0.9664,0.9688,0.9725,0.9748,0.9725,0.9833,0.9843,0.9852,0.9887,0.99,0.9745,0.9744,0.9744,0.9744,0,0.8886,0.8966,0.9021,0.912,0.9176,0.9256,0.9309,0.9361,0.9381,0.9422,0.9525,0.9593,0.9683,0.9713,0.9735,0.9836,0.9828,0.9823,0.9801,0.9864,0.9897,0.9911,0.9746,0.9746,0.9745,0.9745,0,0,0.8972,0.9089,0.9109,0.9153,0.9245,0.9308,0.9388,0.9476,0.9519,0.9589,0.9658,0.977,0.9766,0.9818,0.9846,0.9897,0.9971,0.9886,0.9889,0.99,1.0086,1.009,1.0104,0.9978,0.998,0.9983,1.0079,0,0.9066,0.9211,0.9248,0.9371,0.9445,0.9465,0.9536,0.9599,0.9639,0.9707,0.9751,0.983,0.9819,0.985,0.9901,0.9951,1.0009,0.9944,1.0043,1.0046,1.0023,1.0122,1.0126,1.0215,1.0093,1.0095,1.0097,0,0.9196,0.9267,0.9397,0.9477,0.9509,0.9572,0.9654,0.9718,0.979,0.9816,0.9872,0.9894,0.9979,0.9949,1.0066,1.0021,1.0063,1.0093,1.0098,1.011,1.0076,1.0137,1.0244,1.0257,1.0117,1.0116,1.0114,0,0.9245,0.9373,0.9467,0.9504,0.96,0.9644,0.9686,0.9755,0.9804,0.9875,0.9908,0.9988,1.0032,1.0093,1.0136,1.0111,1.0249,1.0224,1.0273,1.0272,1.0303,1.0301,1.0419,1.0328,1.0328,1.0327,1.0327,0,0.9347,0.9426,0.9491,0.9549,0.9637,0.9678,0.9765,0.9807,0.9868,0.9935,0.9957,1.0019,1.007,1.0139,1.0173,1.0264,1.0284,1.0306,1.0315,1.0305,1.0303,1.0335,1.033,1.0331,1.033,1.0329,1.0329,0,0.9418,0.9465,0.9568,0.9649,0.9671,0.9733,0.9802,0.9859,0.9898,0.9982,1.0004,1.0065,1.0147,1.0195,1.0298,1.0321,1.0422,1.0427,1.0398,1.0402,1.0448,1.0443,1.0592,1.0614,1.0507,1.0508,1.0509,0,0.9481,0.9541,0.9628,0.9673,0.9716,0.9789,0.9838,0.988,0.9931,1.0016,1.0062,1.0145,1.0213,1.0342,1.0397,1.0476,1.0483,1.053,1.0496,1.0484,1.0485,1.0481,1.0487,1.0536,1.0537,1.0538,1.0539,0,0.9586,0.9606,0.9676,0.9754,0.9812,0.9876,0.9939,0.9975,1.0027,1.0083,1.0166,1.0219,1.0323,1.0405,1.0487,1.0531,1.0544,1.0548,1.0564,1.0556,1.0537,1.0548,1.0415,1.0546,1.0545,1.0544,1.0544,1.0544,0.9656,0.971,0.9779,0.9856,0.9907,0.9965,1.0022,1.0067,1.0137,1.0224,1.0244,1.0332,1.04,1.0512,1.0557,1.0625,1.0618,1.064,1.0646,1.0652,1.0653,1.0524,1.0641,1.064,1.064,1.064,1.064,0,0.9763,0.9808,0.9878,0.9965,1.0025,1.0029,1.0099,1.0149,1.0225,1.0287,1.0353,1.0448,1.0526,1.0585,1.0666,1.0709,1.0717,1.0729,1.0727,1.0736,1.0655,1.0634,1.0721,1.0721,1.0721,1.0721,1.0721,1.0721,0.9826,0.9918,0.9945,1.0062,1.0106,1.0191,1.023,1.0283,1.0332,1.0437,1.0501,1.0539,1.06,1.0684,1.0756,1.0771,1.08,1.0811,1.0827,1.0751,1.0742,1.0734,1.0714,1.0817,1.0817,1.0903,1.0904,1.0904]}]]